Printer-friendly version

IAU Minor Planet Center

Minor Planet Center

MPEC 2001-A44: 2000 VU2

The following Minor Planet Electronic Circular may be linked-to from your own Web pages, but must not otherwise be redistributed electronically.


Read MPEC 2001-A43 Read MPEC 2001-A45


M.P.E.C. 2001-A44                                Issued 2001 Jan. 11, 23:49 UT

     The Minor Planet Electronic Circulars contain information on unusual
         minor planets and routine data on comets.  They are published
   on behalf of Commission 20 of the International Astronomical Union by the
          Minor Planet Center, Smithsonian Astrophysical Observatory,
                          Cambridge, MA 02138, U.S.A.

             Prepared using the Tamkin Foundation Computer Network

                              MPC@CFA.HARVARD.EDU
          URL http://cfa-www.harvard.edu/iau/mpc.html  ISSN 1523-6714

                                   2000 VU2

                           Revision to MPEC 2000-W29

Observations:
     K00V02U 5 1984 03 07.49458 09 11 18.39 -01 44 28.3                      260
     K00V02U 5 1984 03 07.53625 09 11 17.45 -01 44 19.7                      260

Observer details:
260 Siding Spring-DSS.  Trail located and measured by R. Haver, A. Pelloni,
    G. Forti.  1.2-m Schmidt.

First and last observations above in comparison with prediction:
Residuals in seconds of arc (or two decimals in degrees), reference and Delta-T
840307 260 0.03- 0.01+    840307 260 0.03- 0.01+                +0.21 day

Orbital elements:
2000 VU2 = 2000 VW55
Id. T. B. Spahr (d, MPO 7670), S. Nakano (d, ibid.)
Epoch 2001 Apr. 1.0 TT = JDT 2452000.5                  Williams
M   4.96947              (2000.0)            P               Q
n   0.05343762     Peri.  180.78831     +0.34936614     -0.91041518
a   6.9807911      Node   248.78561     +0.86096352     +0.40521622
e   0.5564414      Incl.   13.74863     +0.36970950     -0.08333069
P  18.44           H   13.2           G   0.15           U   2
Residuals in seconds of arc
840307 260  0.3-  0.4+    001119 853  0.1-  0.0     001124 918  0.6+  0.3+
840307 260  0.3+  0.3-    001119 853  0.2-  0.0     001124 918  0.4-  0.2+
000927 704  0.3-  0.0     001119 853  0.2-  0.1+    001124 854  0.1-  0.5-
000927 704  0.1-  0.1-    001119 670  0.1+  0.3-    001124 699  0.3-  0.2+
000927 704  0.5+  0.3-    001119 670  0.6+  0.3+    001124 854  0.3+  0.3-
000927 704  0.0   0.1+    001119 670  0.6-  0.3+    001124 918  0.2-  0.2+
000927 704  0.3+  0.1-    001119 300  0.2-  0.6-    001124 854  0.5+  0.1+
001025 704  0.4-  0.5+    001119 300  0.3-  0.7-    001124 918  0.1-  0.4+
001025 704  0.0   0.3+    001120 919  0.7+  0.0     001124 918  0.6+  0.3+
001025 704  0.2-  0.5+    001120 919  0.8+  0.1+    001124 699  0.2-  0.0
001025 704  0.4-  0.6+    001120 704  1.0-  0.0     001124 699  0.0   0.2+
001025 704  0.6-  0.9+    001120 670  0.2+  0.3+    001125 867  0.0   0.2-
001101 919  0.1+  0.8-    001120 850  0.3+  0.0     001125 867  0.1+  0.2-
001101 919  0.6+  1.3-    001120 704  0.3-  0.1+    001125 867  0.0   0.2-
001102 919  1.7-  0.0     001120 704  0.4-  0.1+    001129 704  0.2-  0.6+
001102 919  1.8-  0.1+    001120 850  0.1+  0.4-    001129 704  0.1-  0.5+
001103 704  0.3+  0.1+    001120 670  0.2+  1.6-    001129 704  0.1+  0.4+
001103 704  0.3+  0.1-    001120 704  0.5-  0.1+    001129 704  0.0   0.5+
001103 704  0.2+  0.1-    001120 850  0.1+  0.2-    001129 704  0.2+  0.5+
001103 704  0.0   0.3+    001120 670  0.5+  0.4+    001202 726 (2.0+  2.2+)
001105 704  0.5+  0.4+    001121 719  0.2-  0.2+    001202 726 (2.0+  2.5+)
001105 704  0.0   0.1-    001121 719  0.7+  0.4+    001202 726 (2.8+  1.9+)
001105 704  0.0   0.1+    001121 850  0.2+  0.3-    001216 691  0.5-  0.5-
001105 704  0.5+  0.7+    001121 850  0.1+  0.4-    001216 691  0.1-  0.7-
001105 704  0.1-  1.2+    001121 850  0.2+  0.3-    001216 691  0.4-  0.7-
001118 699  0.6+  0.3-    001121 850  0.3+  0.3-    001219 691  0.3+  0.2-
001118 699  0.5+  0.1-    001121 300  0.1-  0.9-    001219 691  0.0   0.4-
001118 699  0.2-  0.2+    001121 300  0.3+  0.1-    001219 691  0.1+  0.5-
001118 699  0.2+  0.1+    001121 300  0.7+  0.2-    001222 867  0.1-  0.2+
001118 300  0.1-  0.0     001122 850  0.5-  0.2-    001222 867  0.2-  0.3+
001118 300  0.4-  0.0     001122 850  0.1-  0.1-    001222 867  0.2-  0.2+
001118 300  0.1-  0.3-    001122 850  0.1+  0.1-    001229 699  0.6-  0.2+
001118 046  0.0   0.2-    001122 850  0.0   0.2-    001229 699  0.4-  0.4+
001118 046  0.1+  0.2+    001122 046  0.1+  0.1+    001229 699  0.3-  0.2+
001118 046  0.0   0.2-    001122 046  0.2+  0.1-    001229 699  0.2-  0.1+
001118 046  0.3+  0.0     001122 046  0.1-  0.2-    001230 704  0.3+  0.7+
001118 046  0.1+  0.1-    001122 046  0.0   0.1+    001230 704  0.1+  0.2+
001118 151  0.0   0.2-    001122 046  0.1+  0.3-    001230 704  0.1+  0.7+
001118 151  0.1-  0.1-    001123 919  0.5+  0.3+    001230 704  0.3-  0.2+
001118 118  0.1-  0.1+    001123 853  0.0   0.4-    010103 704  0.2+  0.5+
001118 151  0.1+  0.0     001123 853  0.1+  0.2-    010103 704  0.3-  0.4+
001118 118  0.0   0.2-    001123 919  0.6+  0.1-    010103 704  0.4+  0.0
001118 151  0.2-  0.2-    001123 853  0.0   0.2-    010103 704  0.6+  0.2-
001118 151  1.6-  0.8+    001123 919  0.8+  0.4+    010103 704  0.5-  1.4-
001118 118  0.1-  0.1+    001123 919  0.3+  0.5+
001118 151  0.0   0.1-    001124 699  0.2-  0.0

Ephemeris:
2000 VU2                 a,e,i = 6.98, 0.56, 14                  q = 3.0964
Date    TT    R. A. (2000) Decl.     Delta      r     Elong.  Phase     V
2001 01 01    03 42.25   +19 11.8    2.303    3.097   137.1    12.5    18.2
2001 01 11    03 42.73   +18 32.2    2.407    3.098   126.9    14.7    18.4
2001 01 21    03 45.35   +18 03.6    2.526    3.101   117.2    16.4    18.6
2001 01 31    03 50.03   +17 45.4    2.656    3.106   108.0    17.6    18.7
2001 02 10    03 56.59   +17 36.2    2.795    3.112    99.4    18.2    18.8
2001 02 20    04 04.83   +17 34.1    2.939    3.120    91.2    18.5    19.0
2001 03 02    04 14.53   +17 37.0    3.084    3.130    83.5    18.3    19.1
2001 03 12    04 25.49   +17 42.9    3.229    3.142    76.1    17.9    19.2
2001 03 22    04 37.52   +17 50.0    3.372    3.155    69.0    17.2    19.2
2001 04 01    04 50.43   +17 56.6    3.510    3.169    62.2    16.2    19.3

Gareth V. Williams           (C) Copyright 2001 MPC           M.P.E.C. 2001-A44

Read MPEC 2001-A43 Read MPEC 2001-A45


Our Web policy. Index to the CBAT/MPC/ICQ pages.


Valid HTML 4.01!